Mitchell, SD

1:39 AM CDT on October 23, 2019 (GMT -0500)
Mitchell Municipal

Weather History for KMHE - August, 2019

Change the Weather History Date:

Wednesday, August 7, 2019

  Actual Average Record
Temperature  
Mean Temperature 77 °F 73 °F  
Max Temperature 88 °F 85 °F 105 °F (1980)
Min Temperature 66 °F 62 °F 47 °F (1921)
Degree Days  
Heating Degree Days 0 0  
Month to date heating degree days 0 0  
Since 1 June heating degree days 16 40  
Since 1 July heating degree days 0 5  
Cooling Degree Days 12 9  
Month to date cooling degree days 71 63  
Year to date cooling degree days 651 581  
Since 1 June cooling degree days 632 541  
Growing Degree Days 26 (Base 50)    
Moisture  
Dew Point 64 °F    
Average Humidity 63    
Maximum Humidity 81    
Minimum Humidity 45    
Precipitation  
Precipitation 0.00 in 0.08 in 2.60 in (1909)
Month to date precipitation 1.24 0.49  
Year to date precipitation 22.16 14.46  
Snow  
Snow 0.00 in - 0.00 in ()
Month to date snowfall 0.0  
Since 1 June snowfall 0.0  
Since 1 July snowfall 0.0  
Snow Depth 0.00 in    
Sea Level Pressure  
Sea Level Pressure 29.85 in    
Wind  
Wind Speed 8 mph (North)    
Max Wind Speed 14 mph    
Max Gust Speed 20 mph    
Visibility 10 miles    
Events      
T = Trace of Precipitation, MM = Missing Value Source: NWS Daily Summary

Daily Weather History Graph

Daily Weather History Graph

Search for Another Location

Airport or City:

Astronomy

Aug. 07, 2019 Rise Set
Actual Time 6:27 AM CDT 8:47 PM CDT
Civil Twilight 5:55 AM CDT 9:19 PM CDT
Nautical Twilight 5:15 AM CDT 9:59 PM CDT
Astronomical Twilight 4:30 AM CDT 10:43 PM CDT
Moon 2:15 PM CDT (8/7) 12:21 AM CDT (8/7)
Length of Visible Light 15h 24m
Length of Day
14h 20m
Waxing Crescent, 50% of the Moon is Illuminated
Aug 7
Waxing Crescent
Aug 7
First Quarter
Aug 15
Full
Aug 23
Last Quarter
Aug 30
New

Hourly Weather History & Observations

Time (CDT) Temp. Heat Index Dew Point Humidity Pressure Visibility Wind Dir Wind Speed Gust Speed Precip Events Conditions
12:53 AM 73.9 °F - 64.0 °F 71% 29.80 in 10.0 mi SSW 10.4 mph - N/A   Clear
1:53 AM 73.0 °F - 64.0 °F 73% 29.79 in 10.0 mi SW 10.4 mph - N/A   Clear
2:53 AM 71.1 °F - 63.0 °F 75% 29.78 in 10.0 mi WSW 8.1 mph - N/A   Clear
3:53 AM 71.1 °F - 60.1 °F 68% 29.78 in 10.0 mi WSW 9.2 mph - N/A   Clear
4:53 AM 69.1 °F - 60.1 °F 73% 29.79 in 10.0 mi West 10.4 mph - N/A   Clear
5:53 AM 66.0 °F - 60.1 °F 81% 29.81 in 10.0 mi Calm Calm - N/A   Clear
6:53 AM 66.0 °F - 61.0 °F 84% 29.83 in 10.0 mi WSW 4.6 mph - N/A   Clear
7:53 AM 69.1 °F - 62.1 °F 78% 29.86 in 10.0 mi North 4.6 mph - N/A   Clear
8:53 AM 73.0 °F - 63.0 °F 71% 29.88 in 10.0 mi North 5.8 mph - N/A   Clear
9:53 AM 75.0 °F - 63.0 °F 66% 29.86 in 10.0 mi NNW 6.9 mph - N/A   Clear
10:53 AM 78.1 °F - 64.0 °F 62% 29.86 in 10.0 mi Variable 5.8 mph - N/A   Clear
11:53 AM 81.0 °F 82.7 °F 64.9 °F 58% 29.86 in 10.0 mi NNE 8.1 mph - N/A   Clear
12:53 PM 82.9 °F 85.4 °F 66.9 °F 58% 29.86 in 10.0 mi NE 9.2 mph - N/A   Clear
1:53 PM 84.0 °F 86.3 °F 66.0 °F 55% 29.86 in 10.0 mi North 8.1 mph - N/A   Clear
2:53 PM 86.0 °F 88.2 °F 66.0 °F 51% 29.85 in 10.0 mi NNE 9.2 mph - N/A   Clear
3:53 PM 87.1 °F 88.9 °F 64.9 °F 48% 29.86 in 10.0 mi North 8.1 mph - N/A   Clear
4:53 PM 87.1 °F 88.3 °F 64.0 °F 46% 29.86 in 10.0 mi NNE 11.5 mph - N/A   Clear
5:53 PM 86.0 °F 86.8 °F 63.0 °F 46% 29.86 in 10.0 mi NNE 10.4 mph - N/A   Clear
6:53 PM 84.0 °F 84.9 °F 63.0 °F 49% 29.86 in 10.0 mi North 9.2 mph - N/A   Clear
7:53 PM 81.0 °F 82.5 °F 64.0 °F 56% 29.87 in 10.0 mi North 6.9 mph - N/A   Clear
8:53 PM 73.9 °F - 64.0 °F 71% 29.88 in 10.0 mi NNE 5.8 mph - N/A   Clear
9:53 PM 72.0 °F - 64.9 °F 78% 29.89 in 10.0 mi North 5.8 mph - 0.00 in   Clear
10:53 PM 72.0 °F - 64.9 °F 78% 29.89 in 10.0 mi North 9.2 mph - N/A   Partly Cloudy
11:53 PM 72.0 °F - 64.0 °F 76% 29.91 in 10.0 mi North 6.9 mph - N/A   Mostly Cloudy